Погода в Мужитине

Россия / Калужская область     53°45′32″N   34°40′23″E
темп.,
°C
ветер,
м/с
пор.,
м/с
влажн.,
%
обл.,
%
осадки,
мм/ч
давл.,
гПа
погр.,
м
27 октября, ср
ср2700:00+3юз51466100 0.0 1023397
03:00+3юз51370100 0.0 1021370
06:00+2ююз51376100 0.0 1020381
09:00+3юз51377100 0.0 1019476
12:00+6юз61268100 0.0 1018603
15:00+5зюз51179100 0.0 1018546
18:00+5зюз4108476 0.0 1019488
21:00+6юз3989100 0.1 1019309
28 октября, чт
чт2800:00+4юз3994100 0.0 1019229
03:00+5юз41291100 0.0 1017343
06:00+6юз51394100 0.8 1015531
09:00+7зюз51396100 1.4 1014591
12:00+8з51296100 0.8 1015620
15:00+10зсз41092100 0.9 1015682
18:00+8зсз399339 0.1 1017238
21:00+7ссз41086100 0.3 1020416
29 октября, пт
пт2900:00+8с3786100 0.0 1023380
03:00+7ссв3787100 0.1 1025313
06:00+6всв248594 0.0 1027111
09:00+7в237770 0.0 1029151
12:00+8ююв226624 0.0 1030780
15:00+9ююз22654 0.0 1030766
18:00+6ююз22835 0.0 103123
21:00+5ююз238921 0.0 103146
30 октября, сб
сб3000:00+4ююз3591100 0.0 103294
03:00+3ююз359340 0.0 1032103
06:00+2ююз24935 0.0 103277
09:00+3ююз26915 0.0 1033168
12:00+8ююз46725 0.0 1032420
15:00+10ююз48715 0.0 1031559
18:00+6ю37915 0.0 1031139
21:00+5ю3119211 0.0 1031237
31 октября, вс
вс3100:00+5ююз3119129 0.0 1031253
03:00+4ююз311925 0.0 1031237
06:00+3ююз310925 0.0 1030222
09:00+4ююз311875 0.0 1031268
12:00+9ююз59664 0.0 1029442
15:00+10ю49601 0.0 1028591
18:00+6ю310771 0.0 1027198
21:00+5ю311770 0.0 1027256